User: anonymous   Login
Location: Oberwangen
(47.4286°N, 8.9679°E)
Time: 11:56:05
(UTC+00:00)
Language:

SL-4 R/B - Orbit

View from above orbital plane
View from above orbital plane
View from above satellite
View from above satellite

Ground track
Ground track

The orbit data is extracted from the following two-line orbital elements,

1 39679U 14021B   21270.90809165  .00001915  00000-0  10811-3 0  9992
2 39679  51.6146  96.9607 0170032 126.4409 235.2372 15.07180542409500
Epoch (UTC): 27 September 2021 21:47:39
Eccentricity: 0.0170032
inclination: 51.6146°
perigee height: 427 km
apogee height: 662 km
right ascension of ascending node: 96.9607°
argument of perigee: 126.4409°
revolutions per day: 15.07180542
mean anomaly at epoch: 235.2372°
orbit number at epoch: 40950

The dashed part of the orbit path shows where the satellite is in the earth's shadow,  

DLR